{"data":{"norad_id":62635,"epoch":"2026-09-22T21:06:56.623392Z","epoch_age_seconds":111764,"freshness":"FRESH","line1":"1 62635U 25009AC  26265.87982203  .00003744  00000+0  18385-3 0  9993","line2":"2 62635  97.3883 343.4941 0002171  28.9109 331.2245 15.18667282 93604","mean_motion":15.18667282,"eccentricity":0.0002171,"inclination_deg":97.3883,"raan_deg":343.4941,"arg_perigee_deg":28.9109,"mean_anomaly_deg":331.2245,"bstar":0.00018385,"rev_number":9360,"period_min":94.819979140105,"perigee_km":508.37203037115,"apogee_km":511.36280188863,"semimajor_km":6888.0044161299,"source":"CELESTRAK","updated_at":"2026-09-23T09:00:21.535189Z"}}